Location: Leugny
(46.9126°N, 0.7020°E)
Time: 04:06:36
(UTC+00:00)

Daily predictions for brighter satellites

Satellite Brightness Start Highest point End
(mag) Time Altitude Azimuth Time Altitude Azimuth Time Altitude Azimuth
Cosmos 468 4.4 00:03:47 39° SSW 00:05:47 85° ESE 00:11:07 10° NNE
COSMOS 2455 4.3 00:04:46 19° SE 00:06:36 22° ESE 00:11:03 10° ENE
MetOp-A 3.2 00:06:32 57° SSW 00:07:11 72° WSW 00:11:00 10° NNW
Cosmos 2082 Rocket 2.7 00:02:02 10° NW 00:07:20 43° WSW 00:09:02 34° SSW
Nadezhda 1 Rocket 4.0 00:04:29 33° SSW 00:07:23 74° W 00:13:37 10° N
Cosmos 2278 Rocket 3.6 00:06:22 11° WSW 00:11:20 34° NW 00:16:30 10° NNE
Cosmos 1869 4.4 00:09:45 10° NNE 00:12:48 29° ENE 00:13:40 25° ESE
CZ-4C R/B 4.3 00:13:11 10° NE 00:16:27 29° E 00:16:54 29° ESE
Cosmos 1356 Rocket 4.3 00:13:09 10° N 00:16:57 40° ENE 00:18:25 28° ESE
SL-8 R/B 3.6 00:15:45 37° SW 00:17:32 67° SSE 00:22:15 10° ENE
Cosmos 1452 Rocket 3.6 00:14:00 10° NNW 00:19:11 60° WSW 00:20:55 39° SSW
USA 308 4.0 00:23:08 24° ESE 00:23:08 24° ESE 00:25:37 10° ENE
NOSS 3-1 (C) 3.0 00:22:32 42° S 00:23:46 56° ESE 00:29:04 10° NE
Cosmos 1908 Rocket 4.4 00:19:53 10° N 00:24:09 44° ENE 00:26:03 28° SE
CZ-3B R/B 4.1 00:28:33 29° SSW 00:32:24 67° SE 00:59:54 10° NE
Cosmos 967 Rocket 4.5 00:29:04 31° SSW 00:32:26 85° ESE 00:38:57 10° NE
Cosmos 972 Rocket 4.2 00:27:22 10° NNW 00:33:01 63° WSW 00:34:56 38° SSW
COSMOS 2406 3.4 00:29:21 10° NW 00:34:55 56° WSW 00:37:01 36° S
Cosmos 2341 Rocket 3.9 00:28:57 10° N 00:35:14 88° W 00:38:22 32° S
SL-8 Rocket 3.9 00:32:47 10° N 00:38:57 80° W 00:41:58 32° S
SL-4 R/B 2.4 00:42:23 34° ESE 00:42:23 34° ESE 00:44:31 10° ENE
NOSS 7 (E) 4.1 00:41:43 10° NW 00:44:52 75° SW 00:44:54 75° SW
Cosmos 2297 3.8 00:45:21 34° S 00:47:52 71° ESE 00:53:34 10° NNE
USA 59 Rocket 2.4 00:52:18 10° NW 00:52:48 10° NNW 00:53:17 10° NNW
Lacrosse 4 Rocket 2.3 00:48:53 10° NNW 00:52:58 47° NE 00:56:30 13° SE
DELTA 2 DEB (DPAF) 3.8 00:49:36 10° NNE 00:53:07 58° ESE 00:53:47 47° SSE
Cosmos 2369 Rocket 2.1 00:50:46 34° SSW 00:53:19 88° ESE 00:58:58 10° NNE
CZ-2C R/B 3.5 00:55:17 28° SW 00:56:53 33° W 01:01:37 10° NNW
USA 290 1.9 00:53:53 10° NNW 00:57:01 89° W 00:57:15 75° SSE
Cosmos 1959 Rocket 4.5 00:50:54 10° NNW 00:57:07 75° W 01:00:25 30° S
Cosmos 2228 Rocket 3.6 00:59:27 33° SW 01:00:56 46° WNW 01:05:11 10° N
ADEOS Rocket 4.1 00:56:17 10° NNE 01:02:00 35° E 01:05:49 17° SSE
Lacrosse 5 rocket 4.1 01:05:10 10° NW 01:07:22 16° N 01:09:33 10° NE
Geosat 4.2 01:03:49 10° NNE 01:08:46 63° WNW 01:11:26 27° SW
USA 276 2.5 01:09:04 35° WNW 01:09:56 54° NNW 01:12:53 10° ENE
Cosmos 1818 3.6 01:09:43 32° SSW 01:12:12 67° ESE 01:17:37 10° NE
In-Cosmos 22 Rocket 4.4 01:09:23 27° SSE 01:12:20 62° E 01:17:50 10° NNE
Cosmos 1300 Rocket 3.4 01:12:57 10° N 01:17:18 82° W 01:19:07 34° S
ARIANE 6 FM1 Upper Stage 3.1 01:16:12 27° WSW 01:18:15 58° NW 01:22:19 10° NE
Cosmos 1315 Rocket 4.0 01:15:33 10° NW 01:18:41 25° W 01:19:10 24° WSW
Meteor 2-5 Rocket 4.4 01:16:25 25° SW 01:19:29 46° WNW 01:25:08 10° N
Cosmos 1703 Rocket 4.0 01:25:41 31° SW 01:27:24 48° WNW 01:31:40 10° N
Cosmos 2181 Rocket 4.3 01:25:44 26° SSW 01:29:19 58° WNW 01:35:39 10° N
Cosmos 1934 Rocket 4.4 01:25:56 10° N 01:32:10 61° ENE 01:38:14 11° SSE
ATLAS 5 CENTAUR R/B 2.6 01:30:58 16° W 01:32:30 24° NW 01:35:07 10° NNE
Nadezhda 3 Rocket 4.0 01:29:57 24° S 01:33:50 88° E 01:40:09 10° N
PSLV R/B 4.0 01:36:42 10° N 01:40:30 59° WNW 01:42:06 31° SW
SJ 16-02 2.8 01:39:46 15° SSE 01:42:26 27° E 01:46:02 10° NE
Cosmos 921 Rocket 3.3 01:41:10 26° S 01:43:21 56° ESE 01:47:28 10° NNE
Nimbus 7 Rocket 4.4 01:37:45 10° NNE 01:43:42 83° ESE 01:47:36 22° SSW
USA 308 2.8 01:41:52 25° WSW 01:43:55 68° NNW 01:48:10 10° NE
ACS3 Solar Sail 2.9 01:39:37 10° N 01:44:24 29° WNW 01:48:09 15° WSW
Spot 1 4.4 01:43:13 10° N 01:48:12 73° WNW 01:51:01 25° SSW
COSMOS 2455 2.9 01:47:52 22° SW 01:51:54 73° NW 01:57:57 10° NNE
IDEFIX/ARIANE 42P 2.6 01:48:26 10° NNE 01:53:43 88° ESE 01:57:12 22° SSW
Cosmos 540 Rocket 4.0 01:49:25 10° NNW 01:54:28 59° ENE 01:59:28 10° SE
SL-8 R/B 3.9 01:55:07 10° W 01:59:52 73° N 02:04:39 10° E
Iridium 82 3.9 02:00:15 39° SW 02:01:01 59° W 02:03:48 10° N
ADEOS II 4.3 01:57:27 10° NE 02:01:06 19° E 02:04:45 10° SE
SL-19 R/B 4.0 01:59:03 16° SSE 02:01:37 72° ENE 02:04:51 10° NNW
Meteor 1-11 4.4 02:00:23 17° S 02:04:45 71° E 02:10:24 10° NNE
NOSS 3-1 (A) 3.1 02:01:56 20° SW 02:05:10 68° NW 02:10:52 10° NE
Resurs 1-4 Rocket 3.4 02:06:48 10° NNE 02:11:34 34° E 02:16:18 10° SSE
Cosmos 1140 Rocket 3.8 02:11:29 20° SW 02:14:56 55° WNW 02:19:58 10° NNE
Cosmos 1656 4.1 02:11:01 16° S 02:15:15 55° ESE 02:20:39 10° NE
Cosmos 1346 Rocket 2.8 02:14:57 24° SSW 02:16:57 55° WNW 02:20:33 10° N
H-2A R/B 3.5 02:12:22 10° NNE 02:17:03 32° E 02:21:36 10° SSE
SL-4 R/B 2.3 02:15:45 10° W 02:18:45 44° NNW 02:21:46 10° ENE
Cosmos 1605 Rocket 4.1 02:13:34 10° N 02:19:55 79° E 02:26:07 10° SSE
Cosmos 1763 Rocket 3.4 02:21:14 10° NNW 02:26:16 68° WSW 02:31:15 10° S
Cosmos 371 Rocket 3.3 02:23:01 18° SSW 02:26:38 81° WNW 02:31:29 10° NNE
Cosmos 304 Rocket 3.8 02:25:25 18° SSW 02:28:55 68° WNW 02:33:41 10° NNE
Lacrosse 4 Rocket 2.8 02:27:18 10° WNW 02:30:24 20° WSW 02:31:50 17° SW
Cosmos 2297 Rocket 2.8 02:28:43 10° NNW 02:34:20 60° ENE 02:39:55 10° SE
OPS 8737 4.0 02:34:18 10° NW 02:37:25 67° SW 02:40:32 10° SSE
NOSS 2-2 (D) 4.2 02:34:11 10° NNW 02:37:46 56° NE 02:42:33 10° SE
Cosmos 2369 Rocket 4.1 02:34:05 10° W 02:38:07 20° NW 02:42:10 10° N
Cosmos 1025 Rocket 3.1 02:34:41 12° S 02:38:40 85° E 02:43:03 10° N
MOZ.5/SAFIR/RUBIN 5/SL-8 3.7 02:36:34 10° S 02:41:07 70° WSW 02:45:45 10° NNW
FENGYUN 3A 4.1 02:36:55 10° N 02:42:05 49° WNW 02:46:39 13° SW
USA 276 3.1 02:40:07 10° WNW 02:42:59 45° N 02:45:58 10° E
CZ-2D R/B 2.7 02:39:01 10° NNE 02:44:25 59° ESE 02:49:44 10° S
Lacrosse 5 rocket 3.6 02:42:01 10° NW 02:44:52 23° NNE 02:47:37 10° ENE
ADEOS Rocket 3.7 02:41:40 10° N 02:47:36 42° WNW 02:52:44 11° SW
DMSP B5D2-2 4.1 02:46:56 10° S 02:52:08 64° WSW 02:57:23 10° NNW
ALOS 2.4 02:49:18 10° NNE 02:53:52 71° ESE 02:58:23 10° S
NOSS 2-2 (C) 3.7 02:50:10 10° NW 02:53:55 54° SW 02:59:01 10° SSE
ATLAS 3B R/B 4.2 02:47:14 10° S 02:53:55 35° ESE 03:00:51 10° NE
Cosmos 468 Rocket 3.9 02:52:07 10° NNW 02:57:14 74° WSW 03:02:18 10° SSE
NPP 4.5 02:52:56 10° N 02:57:53 38° WNW 03:02:47 10° SW
SL-24 DEB 4.3 02:54:57 10° S 02:59:15 53° W 03:03:35 10° NNW
Cosmos 2360 4.3 02:54:41 11° SSW 03:00:10 81° WNW 03:05:54 10° NNE
Cosmos 2263 Rocket 4.4 02:56:38 10° N 03:01:33 30° NE 03:06:27 10° ESE
Cosmos 1455 Rocket 3.5 03:00:35 10° N 03:04:53 65° ENE 03:09:11 10° SSE
Cosmos 1153 Rocket 4.5 02:59:49 10° N 03:06:04 82° W 03:12:11 10° S
USA 308 4.3 03:02:45 10° WNW 03:06:27 32° NNW 03:10:10 10° NE
Cosmos 405 Rocket 3.3 03:06:51 11° SW 03:09:14 26° WNW 03:11:50 10° NNW
Cosmos 2292 Rocket 2.7 03:07:24 10° S 03:10:20 88° WNW 03:13:41 10° N
Cosmos 2084 Rocket 4.0 03:08:12 10° SSW 03:12:02 46° SE 03:15:56 10° NE
Okean 2 Rocket 3.3 03:07:56 10° NNW 03:12:09 49° W 03:16:21 10° SSW
Envisat 3.2 03:07:47 10° N 03:12:46 57° WNW 03:17:43 10° SSW
Cosmos 374 Rocket 4.4 03:10:07 10° SSW 03:14:05 71° SE 03:17:50 10° NE
SeaSat 1 2.4 03:11:27 10° SSE 03:16:18 64° WSW 03:21:11 10° NNW
CENTAUR R/B 3.5 03:10:34 10° NW 03:18:54 90° NNE 03:28:27 10° SE
SJ 16-02 2.4 03:16:38 10° SW 03:20:24 31° WNW 03:24:14 10° N
Cosmos 1727 Rocket 4.0 03:14:39 10° S 03:20:53 82° W 03:27:08 10° N
BREEZE-M DEB (TANK) 3.5 03:14:09 10° W 03:24:31 67° N 03:27:40 10° E
USA 229 DEB 3.8 03:19:17 10° SSW 03:25:06 63° ESE 03:31:40 10° NE
USA 229 3.9 03:19:19 10° SSW 03:25:08 62° ESE 03:31:42 10° NE
